Location: Melham
(44.5575°N, 97.6865°W)
Time: 19:28:23
(UTC+00:00)

Envisat - Visible Passes

Search period start: 29 November 2020 00:00
Search period end: 09 December 2020 00:00
Orbit: 764 x 766 km, 98.1° (Epoch: 29 November)

Date Brightness Start Highest point End Pass type
(mag) Time Alt. Az. Time Alt. Az. Time Alt. Az.
29 Nov 6.3 01:12:06 10° WSW 01:13:45 11° W 01:15:25 10° WNW visible
29 Nov 5.2 11:36:35 10° NE 11:40:54 27° E 11:45:10 10° SSE visible
30 Nov 5.4 00:32:22 10° SSW 00:36:31 25° W 00:40:42 10° NW visible
30 Nov 6.2 11:01:33 10° ENE 11:03:40 12° E 11:05:48 10° ESE visible
30 Nov 3.0 12:38:13 10° NNE 12:43:20 83° WNW 12:48:25 10° SSW visible
30 Nov 3.9 23:54:32 10° S 23:59:29 54° W 00:04:29 10° NNW visible
01 Dec 4.1 12:01:34 10° NNE 12:06:28 46° E 12:11:20 10° S visible
01 Dec 3.0 23:17:37 10° SSE 23:22:40 72° ENE 23:27:45 10° N visible
02 Dec 6.1 00:59:24 10° WSW 01:02:13 15° W 01:05:03 10° NW visible
02 Dec 5.5 11:25:30 10° NE 11:29:24 22° E 11:33:16 10° SE visible
02 Dec 3.2 13:03:47 10° N 13:08:41 49° WNW 13:13:33 10° SW visible
03 Dec 5.0 00:20:33 10° SSW 00:25:03 31° W 00:29:34 10° NNW visible
03 Dec 3.1 12:26:50 10° NNE 12:31:57 79° ESE 12:37:02 10° S visible
03 Dec 3.4 23:43:02 10° S 23:48:05 68° WSW 23:53:10 10° NNW visible
04 Dec 4.6 11:50:19 10° NNE 11:55:01 37° E 11:59:41 10° SSE visible
05 Dec 5.8 00:47:11 10° SW 00:50:42 19° W 00:54:14 10° NW visible
05 Dec 5.8 11:14:33 10° NE 11:17:54 17° E 11:21:13 10° SE visible
05 Dec 3.0 12:52:19 10° N 12:57:20 61° WNW 13:02:20 10° SSW visible
06 Dec 4.5 00:08:51 10° SSW 00:13:35 39° W 00:18:21 10° NNW visible
06 Dec 3.5 12:15:29 10° NNE 12:20:33 63° E 12:25:34 10° S visible
06 Dec 3.1 23:31:36 10° SSE 23:36:41 85° WSW 23:41:48 10° NNW visible
07 Dec 6.4 01:15:35 10° W 01:16:27 10° W 01:17:19 10° WNW visible
07 Dec 5.0 11:39:08 10° NE 11:43:34 29° E 11:47:58 10° SSE visible
07 Dec 3.5 13:17:58 10° N 13:22:37 37° WNW 13:27:14 10° SW visible
08 Dec 5.5 00:35:11 10° SW 00:39:11 23° W 00:43:14 10° NW visible
08 Dec 6.1 11:03:50 10° ENE 11:06:22 14° E 11:08:53 10° ESE visible
08 Dec 2.9 12:40:52 10° N 12:45:58 77° WNW 12:51:02 10° SSW visible
